www.pogodaiklimat.ru

Погода и климат >> Архив погоды >> Россия >> Забайкальский край >> Покровка


ПОГОДА в Покровке

  • Прогноз погоды в Покровке
  • Монитор погоды в Покровке

АРХИВ ПОГОДЫ в Покровке

Время (UTC), дата Ветер
(напр.,м/с)
 
Видим.   Явления Облачность Т
(С)
Тd
(С)
f
(%)
Тe
(С)
Тes
(С)
Комфортность P
(гПа)
Po
(гПа)
Тmin
(С)
Tmax
(С)
R
(мм)
R24
(мм)
S
(см)
18 17.08 штиль 0 н/о 10/0
[Cs]
+11.7 +11.7 100 +11 +11 1006.2 969.3
21 17.08 штиль 0 500 м туман местами ясно +12.0 +12.0 100 +11 +11 1007.6 970.7
00 18.08 штиль 0 50 км {туман} 10/8 600 м
[Sc]
+14.2 +12.4 89 +14 +15 1006.9 967.0 +15.0
03 18.08 ЮВ 1 50 км 9/9 600 м
[Cu med, cong]
+17.9 +12.1 69 +19 +20 1008.2 972.0
06 18.08 В 1 50 км 8/6 600 м
[Cu med, cong Ci]
+21.9 +11.6 52 +24 +28 комфорт 1006.3 970.7
12 18.08 СВ 1 50 км 8/0
[Ci fib]
+13.5 +13.0 97 +14 +14 1007.6 970.7 +21.9
15 18.08 штиль 0 50 км 8/4 600 м
[Cu med, cong Ci fib]
+19.8 +15.8 78 +22 +22 комфорт 1006.5 970.7
18 18.08 штиль 0 н/о 10/0
[Cs]
+7.4 +7.4 100 +6 +6 1012.4 974.7
21 18.08 СВ 1 500 м туман ясно +9.3 +9.3 100 +8 +8 1013.5 976.0
00 19.08 В 2 50 км {туман} 3/0
[Ac trans]
+13.9 +11.1 83 +13 +17 1012.0 975.1 +6.9
03 19.08 В 2 50 км 9/0
[Ac und]
+20.7 +11.6 56 +23 +25 комфорт 1012.0 976.0
06 19.08 В 2 50 км 6/6 600 м
[Cu med, cong]
+23.7 +11.4 46 +25 +29 комфорт 1008.8 973.3
09 19.08 СВ 2 50 км 3/3 600 м
[Cu med, cong]
+22.9 +11.9 50 +25 +27 комфорт 1008.9 973.3
12 19.08 В 1 50 км 10/0
[Cs]
+15.1 +11.9 81 +16 +16 1009.8 973.1 +24.5
15 19.08 СВ 1 н/о 5/0
[Ci fib]
+13.7 +11.6 87 +14 +14 1011.5 974.7
18 19.08 В 2 н/о 8/0
[Ci fib]
+11.6 +10.2 91 +10 +10 1011.8 974.7
21 19.08 СВ 2 50 км 9/0
[Ac und]
+11.9 +10.5 91 +11 +11 1010.3 973.3
00 20.08 В 2 50 км 10/8 600 м
[Sc Ac trans]
+12.9 +10.2 84 +12 +12 1009.0 972.1 +10.5
03 20.08 СВ 2 20 км слаб. ливневой дождь 10/10 600 м
[Cb cap]
+15.7 +11.5 76 +16 +16 1008.5 972.0
06 20.08 СВ 3 50 км {ливн. осадки} 10/10 600 м
[Cb cap]
+19.7 +12.2 62 +21 +21 комфорт 1006.6 970.7
09 20.08 В 1
{10}
50 км {ливн. осадки} 10/10 600 м
[Cb cap]
+16.5 +16.0 97 +17 +17 1007.0 970.7
12 20.08 СВ 2 50 км {ливн. осадки} 10/10 600 м
[Cb cap]
+16.3 +13.4 83 +16 +16 1006.5 970.2 +21.3 2
15 20.08 СВ 3 н/о 10/10 600 м
[Cb cap]
+16.0 +12.5 80 +16 +16 1007.1 970.7
18 20.08 СВ 3 н/о в посл. час ливневой дождь 10/10 600 м
[Cb cap]
+14.7 +12.9 89 +14 +14 1007.2 970.7
21 20.08 СВ 2 20 км слаб. ливневой дождь 10/10 600 м
[Cb cap]
+13.4 +12.9 97 +13 +13 1007.4 970.7
00 21.08 СВ 3 20 км слаб. ливневой дождь 10/10 600 м
[Cb cap]
+13.6 +12.6 94 +12 +12 1007.4 970.7 +13.4 6
03 21.08 СВ 3 20 км слаб. ливневой дождь 10/10 600 м
[Cb cap]
+14.2 +12.9 92 +13 +13 1007.9 971.2
06 21.08 СВ 2 50 км {ливн. осадки} 10/10 600 м
[Cb cap]
+15.0 +13.1 88 +15 +15 1008.2 971.6
09 21.08 СВ 1 50 км слаб. ливневой дождь 10/10 600 м
[Cb cap]
+14.6 +13.6 94 +15 +15 1009.9 973.3
12 21.08 штиль 0 20 км слаб. ливневой дождь 10/10 600 м
[Cb cap]
+13.4 +13.4 100 +13 +13 1010.8 973.9 +15.1 3
15 21.08 СВ 1 н/о 10 баллов +14.2 +13.7 97 +14 +14 1011.4 974.7
18 21.08 штиль 0 н/о 10/10 600 м
[Cb cap]
+13.4 +13.1 98 +13 +13 1012.9 976.0
21 21.08 штиль 0 50 км 10/0
[As op]
+13.2 +13.2 100 +13 +13 1012.9 976.0
00 22.08 З 1 50 км 10/0
[As op]
+15.3 +13.7 90 +16 +17 1013.1 976.4 +13.1 0.3
03 22.08 ЮВ 1 50 км 10/10 600 м
[Cb cap]
+19.6 +14.0 70 +22 +22 комфорт 1013.4 977.3
06 22.08 СЗ 1 50 км 9/9 600 м
[Cb cap]
+21.7 +14.8 65 +25 +26 комфорт 1013.2 977.3
09 22.08 СЗ 1 50 км 8/5 600 м
[Cu med, cong Ac trans]
+20.2 +13.9 67 +24 +24 комфорт 1013.4 977.3
12 22.08 СЗ 1 50 км 8/0
[Ac trans]
+13.3 +13.2 99 +13 +13 1013.8 976.8 +22.5
15 22.08 штиль 0 н/о 8/0
[Ac trans]
+11.1 +11.1 100 +10 +10 1016.0 978.7
18 22.08 штиль 0 н/о 10/0
[As op]
+12.3 +12.3 100 +12 +12 1015.9 978.7
21 22.08 В 1 20 км слаб. дождь 10/0
[As op]
+11.1 +11.1 100 +11 +11 1017.4 980.0
00 23.08 штиль 0 50 км {дождь} 10/0
[As op]
+13.8 +13.4 97 +13 +14 1016.2 979.2 +10.0 0.3
03 23.08 В 2 50 км 9/0
[As op]
+19.8 +15.2 75 +23 +24 комфорт 1016.2 980.0
06 23.08 СЗ 1 50 км 9 баллов +22.3 +14.7 62 +26 +27 жарко 1013.1 977.3
09 23.08 З 1 50 км 8/5 600 м
[Cu med, cong Ac trans]
+22.2 +15.3 65 +26 +26 душно 1013.1 977.3
12 23.08 штиль 0 50 км 10/6 600 м
[Cu med, cong Ac cuf]
+16.3 +15.3 94 +16 +16 1013.5 976.9 +23.9
15 23.08 СЗ 1 н/о 10 баллов +13.9 +13.9 100 +14 +14 1015.6 978.7
18 23.08 штиль 0 н/о 10 баллов +12.5 +12.5 100 +12 +12 1015.8 978.7
21 23.08 штиль 0 500 м туман ясно +13.4 +13.4 100 +13 +13 1015.7 978.7
00 24.08 ЮЗ 1 50 км {туман} 10/10 600 м
[Sc]
+15.2 +14.7 97 +16 +16 1014.2 977.5 +12.1
03 24.08 Ю 1 50 км 10 баллов +20.3 +15.3 73 +24 +24 комфорт 1013.3 977.3
06 24.08 ЮВ 1 50 км 7 баллов +25.2 +14.0 50 +28 +31 жарко 1011.4 976.0
09 24.08 Ю 1 50 км 2 балла +25.5 +13.7 48 +28 +29 жарко 1010.0 974.7
12 24.08 С 1 20 км 3/0
[Ci fib]
+15.0 +14.7 98 +15 +15 1011.0 974.3 +26.1
15 24.08 СЗ 1 н/о ясно +11.8 +11.8 100 +11 +11 1013.1 976.0

 

Местоположение метеостанции Покровка (Забайкальский край, Россия): широта 53.35 долгота 121.50 высота над уровнем моря 314 м.

В архиве по умолчанию представлена погода в Покровке за последнюю неделю. Архивные данные за месяц целиком и за предыдущие месяцы, начиная с января 2011 года, Вы можете получить, выбрав интересующий диапазон дат из раскрывающегося списка и нажав кнопку "Ввод!".


*Определитесь, кто Вы:
робот инопланетянин человек

Внимание! Время в таблицах - всемирное. Для получения местного времени необходимо прибавить поправку, которая равна 9 ч.

Смотрите также архив погоды в соседних городах и на ближайших метеорологических станциях:

Погода в Игнасино (Амурская область, Россия) (61 км)
Погода в Ерофей Павловиче (Амурская область, Россия) (74 км)
Погода в Амазаре (Забайкальский край, Россия) (74 км)
Погода в Урюпино (Забайкальский край, Россия) (120 км)
Погода в Могоче (Забайкальский край, Россия) (127 км)
Погода в Мохэ (Хэйлунцзян, Китай) (152 км)
Погода в Тупике (Забайкальский край, Россия) (159 км)
Погода в Джалинде (Амурская область, Россия) (160 км)
Погода в Сковородино (Амурская область, Россия) (174 км)
Погода в Ксеньевской (Забайкальский край, Россия) (187 км)

Пояснения к столбцам:

Ветер - указаны скорость ветра в м/с - средняя за 10 мин, порывы в срок и между сроками (в фигурных скобках) и направление, откуда дует ветер: С - северный, СВ - северо-восточный, В - восточный, ЮВ - юго-восточный, Ю - южный, ЮЗ - юго-западный, З - западный, СЗ - северо-западный.
Видимость - горизонтальная дальность видимости в метрах или километрах. При видимости от 1 до 10 км при отсутствии осадков обычно наблюдается дымка, при ухудшении видимости до 1 км и менее - туман. В сухую погоду видимость может ухудшаться дымом, пылью или мглою.
Явления - указаны атмосферные явления, наблюдавшиеся в срок или в последний час перед сроком; фигурными скобками обозначены явления, наблюдавшиеся между сроками (за 1-3 часа до срока); квадратными скобками обозначены град или гололедные отложения с указанием их диаметра в мм.
Облачность - указаны через наклонную черту общая и нижняя облачность в баллах и высота нижней границы облаков в метрах; квадратными скобками обозначены формы облаков: Ci - перистые, Cs - перисто-слоистые, Cc - перисто-кучевые, Ac - высококучевые, As - высокослоистые, Sc - слоисто-кучевые, Ns - слоисто-дождевые, Cu - кучевые, Cb - кучево-дождевые. Подробнее классификацию облаков см. в Атласе облаков (PDF).
T - Температура воздуха - температура, измеренная на высоте 2 м над землей.
Td - Температура точки росы - температура, при понижении до которой содержащийся в воздухе водяной пар достигнет насыщения.
f - Относительная влажность воздуха - влажноcть воздуха, измеренная на высоте 2 м над землей.
Te - Эффективная температура - температура, которую ощущает одетый по сезону человек в тени. Характеристика душности погоды. При расчете учитывается влияние влажности воздуха и скорости ветра на теплоощущения человека.
Tes - Эффективная температура на солнце - температура, которую ощущает человек, с поправкой на солнечный нагрев. Характеристика знойности погоды. Зависит от высоты солнца над горизонтом, облачности и скорости ветра. Ночью, в пасмурную погоду, а также при ветре 12 м/с и более поправка равна нулю.
P - Атмосферное давление - приведенное к уровню моря атмосферное давление.
Po - Атмосферное давление - измеренное на уровне метеостанции атмосферное давление.
Tmin - Минимальная температура - минимум температуры воздуха на высоте 2 м над землей.
Tmax - Максимальная температура - максимум температуры воздуха на высоте 2 м над землей.
R - Количество осадков - Количество выпавших осадков за период времени, мм. При наведении курсора мыши на число - период времени, за который выпало указанное количество осадков.
R24 - Количество осадков - Количество выпавших осадков за 24 часа, мм.
S - Снежный покров - Высота снежного покрова, см. При наведении курсора мыши на число - состояние снежного покрова и степень покрытия местности в баллах.